Flag for Germany Weather past 2 weeks in Weimar, Thuringia, Germany

Now
68 °F

Sunny.


Feels Like: 68 °F
Forecast: 61 / 77 °F
Wind: 1 mph from Northeast

Location: Erfurt-Bindersleben

Current Time: Aug 2, 2014 at 9:21:50 AM

Latest Report: Aug 2, 2014 at 8:50 AM


Visibility: 10 mi

Pressure: 29.83 "Hg

Humidity: 73%

Dew point: 59 °F

Location of WeimarLocation

Historic Weather in Weimar — Graph

°F

Weimar temperature yesterday

Maximum temperature yesterday: 77 °F (at 2:20 PM)
Minimum temperature yesterday: 54 °F (at 5:20 AM)
Average temperature yesterday: 68 °F

Past Weeks' High & Low Weather Summary

 TemperatureHumidityPressure
High88 °F (Jul 19, 3:20 PM)100% (Jul 21, 4:50 AM)30.15 "Hg (Jul 21, 4:50 AM)
Low54 °F (Aug 1, 5:20 AM)25% (Jul 19, 6:20 PM)29.74 "Hg (Jul 29, 10:20 PM)
Average69 °F72%29.94 "Hg
* Reported Jul 18 7:20 AM — Aug 2 7:50 AM, Weimar, Weather by CustomWeather, © 2014

Note: Actual official high and low records may vary slightly from our data, if they occured in-between our weather recording intervals... More about our weather records

Advertising

Weimar weather history for previous 24 hours

 ConditionsComfort  
Time TempWeatherWind HumidityBarometerVisibility
7:50 AM
Aug 2
63 °FPartly sunny.1 mph83%29.83 "HgN/A
7:20 AM61 °FPartly sunny.2 mph88%29.83 "HgN/A
6:50 AM61 °FPartly sunny.2 mph88%29.83 "HgN/A
6:20 AM61 °FClear.6 mph88%29.83 "Hg10 mi
5:50 AM63 °FClear.1 mph77%29.83 "Hg10 mi
5:20 AM63 °FClear.1 mph77%29.83 "Hg10 mi
4:50 AM61 °FClear.2 mph83%29.83 "Hg10 mi
4:20 AM61 °FClear.5 mph83%29.86 "Hg10 mi
3:50 AM61 °FClear.3 mph83%29.86 "Hg10 mi
3:20 AM61 °FClear.3 mph83%29.86 "Hg10 mi
2:50 AM63 °FClear.5 mph77%29.86 "Hg10 mi
2:20 AM61 °FClear.3 mph83%29.86 "Hg10 mi
1:50 AM63 °FClear.5 mph73%29.86 "Hg10 mi
1:20 AM66 °FClear.2 mph64%29.86 "Hg10 mi
12:50 AM66 °FClear.3 mph68%29.89 "Hg10 mi
12:20 AM66 °FClear.5 mph68%29.89 "Hg10 mi
11:50 PM
Aug 1
68 °FClear.7 mph60%29.89 "Hg10 mi
11:20 PM68 °FClear.7 mph60%29.89 "Hg10 mi
10:50 PM70 °FClear.7 mph57%29.89 "Hg10 mi
10:20 PM70 °FClear.7 mph57%29.89 "Hg10 mi
9:50 PM70 °FSunny.6 mph53%29.89 "Hg10 mi
9:20 PM72 °FSunny.6 mph47%29.89 "Hg10 mi
8:50 PM72 °FSunny.7 mph47%29.89 "Hg10 mi
8:20 PM73 °FSunny.6 mph44%29.89 "Hg10 mi
7:50 PM73 °FSunny.6 mph44%29.89 "Hg10 mi
7:20 PM73 °FSunny.6 mph47%29.89 "Hg10 mi
6:50 PM73 °FSunny.6 mph53%29.89 "Hg10 mi
6:20 PM75 °FSunny.6 mph47%29.89 "Hg10 mi
5:50 PM75 °FSunny.6 mph44%29.89 "Hg10 mi
5:20 PM77 °FSunny.2 mph42%29.89 "Hg10 mi
4:50 PM75 °FSunny.6 mph41%29.89 "Hg10 mi
4:20 PM75 °FSunny.7 mph36%29.89 "Hg10 mi
3:50 PM77 °FSunny.7 mph44%29.89 "Hg10 mi
3:20 PM77 °FPassing clouds.6 mph42%29.89 "HgN/A
2:50 PM77 °FSunny.6 mph36%29.92 "Hg10 mi
2:20 PM77 °FPassing clouds.5 mph39%29.92 "HgN/A
1:50 PM75 °FPartly sunny.7 mph39%29.92 "HgN/A
1:20 PM75 °FBroken clouds.5 mph41%29.92 "HgN/A
12:50 PM75 °FBroken clouds.6 mph44%29.92 "HgN/A
12:20 PM73 °FBroken clouds.7 mph47%29.95 "HgN/A
11:50 AM73 °FBroken clouds.7 mph53%29.95 "HgN/A
11:20 AM73 °FBroken clouds.5 mph53%29.95 "HgN/A
10:50 AM72 °FPartly sunny.3 mph57%29.95 "HgN/A
10:20 AM72 °FPartly sunny.3 mph57%29.95 "HgN/A
9:50 AM70 °FScattered clouds.3 mph60%29.95 "HgN/A
9:20 AM68 °FScattered clouds.3 mph69%29.95 "HgN/A
Weather by CustomWeather, © 2014

See weather overviewHow to use our weather pages